Weather in Sviatohirsk

Ukraine / Donetsk Region     49°02′12″N   37°33′40″E
temp.,
°C
wind,
m/s
gust,
m/s
humid.,
%
clouds,
%
prec.,
mm/h
press.,
hPa
HPBL,
m
18 january, tue
tue1823:000sw9148499 0.2 999691
02:00−1sw71493100 0.3 999685
05:00−1sw81393100 0.1 997636
08:00−1w4897100 0.8 999537
11:00−2w5791100 0.2 1001551
14:00−3wnw688697 0.3 1003840
17:00−5w5995100 0.3 1006655
20:00−6w5109391 0.6 1009543
19 january, wed
wed1923:00−6w489382 0.1 1011456
02:00−7wsw489489 0.3 1013335
05:00−9wsw1197100 0.1 101524
08:00−10nw359796 0.1 1018147
11:00−7nnw3590100 0.1 1019389
14:00−5n3490100 0.2 1019475
17:00−7nnw359679 0.1 1021195
20:00−11nw239981 0.2 102148
20 january, thu
thu2023:00
02:00−12wnw119867 0.1 102217
05:00−13s119867 0.0 102110
08:00
11:00−7s468977 0.0 1021320
14:00−5s488766 0.0 1019482
17:00−9sse24955 0.0 101943
20:00−7s4148852 0.0 1018308
21 january, fri
fri2123:00−5s61587100 0.0 1017518
02:00−3sse71683100 0.0 1015573
05:00−2sse91995100 0.5 1012811
08:000s81698100 2.8 1011794
11:00+1s61499100 0.6 1010617
14:00+1sw71291100 0.7 1010714
17:00−2wsw4991100 0.0 1012264
20:00−4sw3993100 0.0 1013188
22 january, sat
sat2223:00−5ssw2595100 0.0 101493
02:00−6s2595100 0.0 101574
05:00−8ssw2296100 0.0 101519
08:00−7sw1195100 0.0 101525
11:00−3ssw2386100 0.0 1016265
14:00−2sw228582 0.0 1016356
17:00−7w11945 0.0 101810
20:00−9sw119620 0.0 101910